Tracking 35237 objects as of 6-Sep-2026
HD Live streaming from Space Station
objects crossing your sky now

DELTA 1 DEB


DELTA 1 DEB is no longer on orbit


NORAD ID: 17730
Int'l Code: 1975-004HJ
Launch date: January 22, 1975
Source: United States (US)
Launch site: AIR FORCE WESTERN TEST RANGE (AFWTR)
Decay date: 1989-05-09

Note: This is SATELLITE DEBRIS
Your satellite tracking list
Your tracking list is empty




NASA's NSSDC Master Catalog

Two Line Element Set (TLE):
1 17730U 75004 HJ 93042.59791455 -.00000019 +00000-0 +29081-4 0  9992
2 17730 063.4363 137.3297 0039620 150.9312 209.3929 13.40210699062061
Source of the keplerian elements: AFSPC